Location: Bastelaar
(51.0950°N, 3.8602°E)
Time: 16:56:36
(UTC+00:00)

ATLAS 2AS CENTAUR R/B - Pass Details

Date: 18 November 2025
Orbit: 1047 x 1163 km, 63.7° (Epoch: 12 December)

Event Time Altitude Azimuth Distance (km) Brightness Sun altitude
Rises 19:20:45 0° 315° (NW) 3,848 6.3 -32.3°
Reaches altitude 10° 19:23:24 10° 314° (NW) 2,881 5.6 -32.7°
Enters shadow 19:29:40 69° 262° (W) 1,120 2.8 -33.7°
